Altus, OK

11:11 PM CDT on October 19, 2017 (GMT -0500)
Altus Municipal

Weather History for KAXS - March, 2014

Change the Weather History Date:

Friday, March 7, 2014

  Actual Average (KLTS) Record (KLTS)
Temperature  
Mean Temperature 58 °F -  
Max Temperature 80 °F 59 °F 84 °F (2006)
Min Temperature 36 °F 34 °F 21 °F (2008)
Degree Days  
Heating Degree Days 7    
Growing Degree Days 8 (Base 50)    
Moisture  
Dew Point 35 °F    
Average Humidity 51    
Maximum Humidity 86    
Minimum Humidity 16    
Precipitation  
Precipitation 0.00 in - - ()
Sea Level Pressure  
Sea Level Pressure 29.80 in    
Wind  
Wind Speed 13 mph (SE)    
Max Wind Speed 26 mph    
Max Gust Speed 32 mph    
Visibility 10 miles    
Events      
Averages and records for this station are not official NWS values.
T = Trace of Precipitation, MM = Missing Value Source: NWS Daily Summary

Daily Weather History Graph

Daily Weather History Graph

Search for Another Location

Airport or City:

Trip Planner

Search our weather history database for the weather conditions in past years. The results will help you decide how hot, cold, wet, or windy it might be!

Date:

Astronomy

Mar. 07, 2014 Rise Set
Actual Time 6:58 AM CST 6:38 PM CST
Civil Twilight 6:33 AM CST 7:03 PM CST
Nautical Twilight 6:04 AM CST 7:32 PM CST
Astronomical Twilight 5:35 AM CST 8:02 PM CST
Moon 11:07 AM CST (3/7) 12:30 AM CST (3/7)
Length of Visible Light 12h 30m
Length of Day
11h 39m
Waxing Crescent, 42% of the Moon is Illuminated
Mar 7
Waxing Crescent
Mar 8
First Quarter
Mar 16
Full
Mar 23
Last Quarter
Mar 30
New

Hourly Weather History & Observations

Time (CST) Temp. Windchill Dew Point Humidity Pressure Visibility Wind Dir Wind Speed Gust Speed Precip Events Conditions
12:15 AM 42.6 °F 36.3 °F 34.0 °F 71% 29.96 in 10.0 mi SE 11.5 mph - N/A   Clear
12:35 AM 41.9 °F 35.9 °F 33.8 °F 73% 29.96 in 10.0 mi SE 10.4 mph - N/A   Clear
12:55 AM 41.9 °F 35.4 °F 33.8 °F 73% 29.95 in 10.0 mi SE 11.5 mph - N/A   Clear
1:15 AM 41.4 °F 34.7 °F 33.8 °F 74% 29.94 in 10.0 mi SE 11.5 mph - N/A   Clear
1:35 AM 40.8 °F 34.1 °F 33.8 °F 76% 29.94 in 10.0 mi SE 11.5 mph - N/A   Clear
1:55 AM 40.1 °F 33.6 °F 33.6 °F 78% 29.93 in 10.0 mi SE 10.4 mph - N/A   Clear
2:15 AM 39.7 °F 32.7 °F 33.4 °F 78% 29.92 in 10.0 mi SE 11.5 mph - N/A   Clear
2:35 AM 40.3 °F 33.9 °F 33.4 °F 77% 29.92 in 10.0 mi SE 10.4 mph - N/A   Clear
2:55 AM 39.4 °F 33.2 °F 33.3 °F 79% 29.91 in 10.0 mi SE 9.2 mph - N/A   Clear
3:15 AM 39.2 °F 32.5 °F 33.1 °F 79% 29.90 in 10.0 mi SE 10.4 mph - N/A   Clear
3:35 AM 39.6 °F 33.0 °F 33.3 °F 78% 29.90 in 10.0 mi SE 10.4 mph - N/A   Clear
3:55 AM 39.0 °F 32.3 °F 32.9 °F 79% 29.90 in 10.0 mi SE 10.4 mph - N/A   Clear
4:15 AM 38.3 °F 31.4 °F 32.9 °F 81% 29.89 in 10.0 mi SE 10.4 mph - N/A   Clear
4:35 AM 38.8 °F 32.1 °F 33.1 °F 80% 29.88 in 10.0 mi SE 10.4 mph - N/A   Clear
4:55 AM 37.0 °F 31.0 °F 32.2 °F 83% 29.88 in 10.0 mi ESE 8.1 mph - N/A   Clear
5:15 AM 37.0 °F 30.4 °F 32.4 °F 83% 29.88 in 7.0 mi SE 9.2 mph - N/A   Clear
5:35 AM 36.9 °F 29.6 °F 32.4 °F 84% 29.87 in 7.0 mi ESE 10.4 mph - N/A   Clear
5:55 AM 36.9 °F 29.6 °F 32.9 °F 86% 29.87 in 7.0 mi ESE 10.4 mph - N/A   Clear
6:15 AM 37.4 °F 30.3 °F 32.9 °F 84% 29.85 in 7.0 mi ESE 10.4 mph - N/A   Clear
6:35 AM 38.3 °F 31.4 °F 33.4 °F 83% 29.85 in 10.0 mi ESE 10.4 mph - N/A   Clear
6:55 AM 39.2 °F 32.0 °F 33.8 °F 81% 29.85 in 10.0 mi SE 11.5 mph - N/A   Clear
7:15 AM 40.1 °F 33.6 °F 34.2 °F 79% 29.86 in 10.0 mi SE 10.4 mph - N/A   Clear
7:35 AM 41.0 °F 34.3 °F 34.5 °F 78% 29.87 in 10.0 mi SE 11.5 mph - N/A   Clear
7:55 AM 41.5 °F 34.2 °F 34.7 °F 77% 29.85 in 10.0 mi SE 13.8 mph - N/A   Clear
8:15 AM 42.1 °F 34.2 °F 35.1 °F 76% 29.85 in 10.0 mi SE 16.1 mph - N/A   Clear
8:35 AM 43.3 °F 36.1 °F 35.6 °F 74% 29.85 in 10.0 mi SE 15.0 mph - N/A   Clear
8:55 AM 44.1 °F 36.2 °F 35.8 °F 73% 29.85 in 10.0 mi SE 18.4 mph - N/A   Clear
9:20 AM 45.1 °F 38.4 °F 36.3 °F 71% 29.85 in 10.0 mi SSE 15.0 mph - N/A   Clear
9:35 AM 48.7 °F - 37.6 °F 65% 29.84 in 10.0 mi SSE 18.4 mph 21.9 mph N/A   Clear
9:55 AM 50.5 °F - 37.0 °F 60% 29.84 in 10.0 mi South 17.3 mph - N/A   Clear
10:15 AM 54.5 °F - 36.3 °F 50% 29.82 in 10.0 mi SSE 20.7 mph - N/A   Clear
10:35 AM 57.2 °F - 36.0 °F 45% 29.82 in 10.0 mi SSE 18.4 mph - N/A   Clear
10:55 AM 60.8 °F - 35.2 °F 38% 29.81 in 10.0 mi SSE 16.1 mph - N/A   Clear
11:15 AM 62.4 °F - 34.0 °F 35% 29.80 in 10.0 mi South 20.7 mph - N/A   Clear
11:35 AM 64.0 °F - 34.0 °F 33% 29.79 in 10.0 mi South 16.1 mph 24.2 mph N/A   Clear
11:55 AM 66.6 °F - 33.4 °F 29% 29.78 in 10.0 mi South 19.6 mph 25.3 mph N/A   Clear
12:15 PM 69.1 °F - 33.3 °F 27% 29.77 in 10.0 mi South 23.0 mph - N/A   Clear
12:35 PM 70.2 °F - 32.4 °F 25% 29.75 in 10.0 mi South 21.9 mph 25.3 mph N/A   Clear
12:55 PM 72.3 °F - 32.9 °F 23% 29.74 in 10.0 mi South 18.4 mph 24.2 mph N/A   Clear
1:15 PM 73.4 °F - 32.5 °F 22% 29.73 in 10.0 mi South 19.6 mph 24.2 mph N/A   Clear
1:35 PM 74.8 °F - 32.4 °F 21% 29.72 in 10.0 mi South 17.3 mph 25.3 mph N/A   Clear
1:55 PM 76.1 °F - 32.2 °F 20% 29.72 in 10.0 mi South 16.1 mph 25.3 mph N/A   Clear
2:15 PM 76.8 °F - 32.0 °F 19% 29.70 in 10.0 mi SSE 17.3 mph 31.1 mph N/A   Clear
2:35 PM 78.1 °F - 31.6 °F 18% 29.69 in 10.0 mi South 16.1 mph 25.3 mph N/A   Clear
2:55 PM 78.6 °F - 32.0 °F 18% 29.68 in 10.0 mi SSE 16.1 mph - N/A   Clear
3:15 PM 79.2 °F - 31.1 °F 17% 29.67 in 10.0 mi SSE 17.3 mph 23.0 mph N/A   Clear
3:35 PM 79.5 °F - 30.9 °F 17% 29.67 in 10.0 mi South 18.4 mph 24.2 mph N/A   Clear
3:55 PM 80.1 °F - 31.1 °F 17% 29.67 in 10.0 mi South 17.3 mph 24.2 mph N/A   Clear
4:15 PM 79.2 °F - 31.5 °F 18% 29.66 in 10.0 mi SSE 17.3 mph - N/A   Clear
4:35 PM 80.6 °F - 30.9 °F 16% 29.65 in 10.0 mi South 18.4 mph 24.2 mph N/A   Clear
4:55 PM 79.9 °F - 32.9 °F 18% 29.65 in 10.0 mi SE 17.3 mph - N/A   Clear
5:15 PM 79.3 °F - 33.3 °F 19% 29.65 in 10.0 mi SE 19.6 mph 23.0 mph N/A   Clear
5:35 PM 76.8 °F - 34.0 °F 21% 29.66 in 10.0 mi SSE 20.7 mph 25.3 mph N/A   Clear
5:55 PM 75.4 °F - 34.7 °F 23% 29.66 in 10.0 mi SE 17.3 mph 25.3 mph N/A   Clear
6:15 PM 72.5 °F - 35.8 °F 26% 29.66 in 10.0 mi SE 16.1 mph 21.9 mph N/A   Clear
6:35 PM 70.9 °F - 36.5 °F 28% 29.67 in 10.0 mi SE 15.0 mph - N/A   Clear
6:55 PM 70.0 °F - 36.5 °F 29% 29.68 in 10.0 mi SE 18.4 mph 24.2 mph N/A   Clear
7:15 PM 67.5 °F - 36.5 °F 32% 29.68 in 10.0 mi ESE 15.0 mph - N/A   Clear
7:35 PM 66.6 °F - 36.5 °F 33% 29.70 in 10.0 mi ESE 15.0 mph - N/A   Clear
7:55 PM 66.0 °F - 36.5 °F 34% 29.70 in 10.0 mi ESE 16.1 mph - N/A   Clear
8:15 PM 64.9 °F - 36.5 °F 35% 29.72 in 10.0 mi ESE 11.5 mph - N/A   Clear
8:35 PM 63.9 °F - 37.0 °F 37% 29.75 in 10.0 mi East 4.6 mph - N/A   Clear
8:55 PM 59.2 °F - 37.6 °F 45% 29.76 in 10.0 mi NNE 6.9 mph - N/A   Clear
9:15 PM 59.7 °F - 38.3 °F 45% 29.76 in 10.0 mi ENE 9.2 mph - N/A   Clear
9:35 PM 59.9 °F - 38.8 °F 46% 29.77 in 10.0 mi East 10.4 mph - N/A   Clear
9:55 PM 58.5 °F - 39.2 °F 49% 29.78 in 10.0 mi East 11.5 mph - N/A   Clear
10:15 PM 58.1 °F - 39.2 °F 49% 29.79 in 10.0 mi ENE 11.5 mph - N/A   Clear
10:35 PM 56.8 °F - 39.2 °F 52% 29.82 in 10.0 mi North 11.5 mph - N/A   Clear
10:55 PM 54.5 °F - 39.2 °F 56% 29.82 in 10.0 mi North 11.5 mph - N/A   Clear
11:15 PM 52.7 °F - 39.7 °F 61% 29.83 in 10.0 mi North 23.0 mph - N/A   Clear
11:35 PM 52.7 °F - 39.6 °F 61% 29.83 in 10.0 mi NNE 23.0 mph - N/A   Scattered Clouds
11:55 PM 50.4 °F - 38.1 °F 63% 29.84 in 10.0 mi North 26.5 mph 32.2 mph N/A   Scattered Clouds